[[{"header":{"parameterUnit":"m.s-1","parameterCategory":1,"la1":30.2992,"la2":30.254,"lo1":-89.0895,"lo2":-89.0443,"dy":0.0025,"dx":0.0025,"nx":19,"ny":19,"refTime":"2026-03-26T03:00:00:Z","depth":0,"parameterNumber":2,"parameterNumberName":"U-component_of_WINDS"},"data":[0,0,0,-1.3977,-1.3979,-1.4099,-1.4099,-1.4247,-1.4249,0,0,0,0,0,0,0,0,0,0,0,-1.3937,-1.3938,-1.3977,-1.398,-1.4099,-1.4099,-1.4247,-1.4249,0,0,0,0,0,0,0,0,0,0,0,-1.3937,-1.3938,-1.3939,-1.398,-1.4098,-1.4099,-1.4247,-1.4159,0,0,0,0,0,0,0,0,0,0,-1.4044,-1.4003,-1.3938,-1.3939,-1.3981,-1.4098,-1.4099,-1.4155,-1.4164,-1.4191,0,-1.4212,0,-1.4233,-1.4258,-1.4259,0,0,0,-1.3983,-1.3995,-1.403,-1.3939,-1.3982,-1.4098,-1.4046,-1.416,-1.4171,-1.4204,-1.4214,-1.422,-1.4235,-1.4259,-1.426,-1.4399,-1.4399,0,0,-1.3977,-1.3957,-1.4023,-1.4037,-1.4017,-1.4042,-1.4049,-1.4167,-1.4177,-1.4215,-1.4223,-1.4237,-1.426,-1.4261,-1.4398,-1.4399,0,0,0,-1.3955,-1.3952,-1.3985,-1.4031,-1.4053,-1.4045,-1.4054,-1.4172,-1.4185,-1.4225,-1.4239,-1.4261,-1.4262,-1.4398,-1.4398,-1.4402,0,0,0,-1.3951,-1.394,-1.3982,-1.3971,-1.405,-1.4114,-1.4057,-1.4177,-1.419,-1.4238,-1.4261,-1.4264,-1.4397,-1.4398,-1.4401,-1.4407,0,0,0,-1.3931,-1.3937,-1.3953,-1.397,-1.402,-1.4112,-1.4131,-1.418,-1.4199,-1.4259,-1.4264,-1.4397,-1.4398,-1.44,-1.4406,-1.4438,0,0,0,-1.3904,-1.3955,-1.3952,-1.4015,-1.4019,-1.4113,-1.4131,-1.4202,-1.4254,-1.4261,-1.4397,-1.4398,-1.44,-1.4405,-1.4437,-1.4462,-1.447,0,0,-1.3957,-1.396,-1.3999,-1.4001,-1.409,-1.4097,-1.4188,-1.4254,-1.4279,-1.4358,-1.4362,-1.4401,-1.4406,-1.4438,-1.4525,-1.4531,0,0,0,-1.4009,-1.4037,-1.4065,-1.4113,-1.4164,-1.421,-1.4264,-1.429,-1.4357,-1.4315,-1.4423,-1.4426,-1.4446,-1.4459,-1.4464,-1.4483,-1.4403,-1.4403,-1.4403,-1.4056,-1.4084,-1.415,-1.4193,-1.424,-1.4296,-1.4337,-1.4381,-1.4396,-1.4421,-1.4444,-1.4493,-1.4508,-1.4512,-1.4531,-1.446,-1.446,-1.446,-1.446,-1.4137,-1.418,-1.42,-1.427,-1.4301,-1.4361,-1.4419,-1.4428,-1.449,-1.4478,-1.4497,-1.4481,-1.4518,-1.4536,-1.4461,-1.4461,-1.4461,-1.4461,-1.4461,-1.417,-1.4196,-1.4225,-1.4298,-1.4351,-1.4394,-1.4452,-1.4478,-1.4503,-1.4522,-1.455,-1.455,-1.4553,-1.4534,-1.4534,-1.4534,-1.4534,-1.4534,-1.4534,-1.4193,-1.4226,-1.4271,-1.4331,-1.4365,-1.4415,-1.4473,-1.4509,-1.4555,-1.4569,-1.457,-1.4583,-1.4516,-1.4499,-1.4537,-1.4537,-1.4536,-1.4536,-1.4536,-1.4263,-1.4252,-1.4321,-1.4356,-1.4429,-1.4481,-1.4514,-1.4584,-1.4618,-1.4646,-1.4656,-1.4602,-1.4608,-1.4604,-1.459,-1.4649,-1.4649,-1.4649,-1.4649,-1.4291,-1.4297,-1.4374,-1.4428,-1.4484,-1.4521,-1.4601,-1.4648,-1.4695,-1.4718,-1.4713,-1.4697,-1.4691,-1.47,-1.4694,-1.4681,-1.4763,-1.4763,-1.4763,-1.4337,-1.4349,-1.441,-1.4455,-1.4514,-1.4566,-1.4642,-1.4705,-1.4756,-1.4768,-1.4737,-1.4732,-1.4705,-1.4695,-1.4705,-1.4695,-1.4672,0,0]},{"header":{"parameterUnit":"m.s-1","parameterCategory":1,"la1":30.2992,"la2":30.254,"lo1":-89.0895,"lo2":-89.0443,"dy":0.0025,"dx":0.0025,"nx":19,"ny":19,"refTime":"2026-03-26T03:00:00:Z","depth":0,"parameterNumber":3,"parameterNumberName":"V-component_of_WINDS"},"data":[0,0,0,1.3184,1.3184,1.3172,1.3172,1.3162,1.3162,0,0,0,0,0,0,0,0,0,0,0,1.319,1.319,1.3184,1.3184,1.3172,1.3172,1.3162,1.3162,0,0,0,0,0,0,0,0,0,0,0,1.319,1.319,1.319,1.3184,1.3172,1.3172,1.3162,1.3169,0,0,0,0,0,0,0,0,0,0,1.3179,1.3188,1.319,1.319,1.3184,1.3172,1.3172,1.3169,1.3168,1.3169,0,1.317,0,1.3166,1.3161,1.3161,0,0,0,1.3181,1.3188,1.3183,1.319,1.3184,1.3172,1.3177,1.3168,1.3168,1.3168,1.317,1.317,1.3166,1.3161,1.3161,1.3173,1.3173,0,0,1.3182,1.3189,1.3183,1.3182,1.3185,1.3177,1.3176,1.3168,1.3171,1.317,1.3169,1.3166,1.3161,1.3161,1.3173,1.3173,0,0,0,1.3185,1.319,1.3185,1.3183,1.3181,1.3177,1.3176,1.3171,1.3169,1.3169,1.3165,1.3161,1.3161,1.3173,1.3173,1.3189,0,0,0,1.3186,1.3192,1.3185,1.3189,1.3181,1.3176,1.318,1.3169,1.3168,1.3165,1.3161,1.3161,1.3172,1.3173,1.3188,1.3195,0,0,0,1.319,1.3192,1.3192,1.319,1.3185,1.3176,1.3173,1.3169,1.3166,1.3161,1.3161,1.3172,1.3173,1.3187,1.3194,1.3201,0,0,0,1.3196,1.3206,1.3192,1.3201,1.3186,1.3186,1.3173,1.3173,1.3171,1.3161,1.3173,1.3173,1.3187,1.3193,1.32,1.3208,1.3212,0,0,1.3213,1.3208,1.3213,1.32,1.3206,1.3187,1.3195,1.3185,1.3177,1.3175,1.3175,1.3189,1.3194,1.3201,1.3232,1.3235,0,0,0,1.3221,1.3224,1.3224,1.3223,1.3216,1.3211,1.3199,1.3196,1.3194,1.3178,1.3193,1.3196,1.3199,1.3202,1.3205,1.3208,1.3175,1.3175,1.3175,1.3254,1.3244,1.3252,1.3241,1.3239,1.3228,1.3226,1.3219,1.3209,1.3213,1.3212,1.3232,1.3236,1.3238,1.3241,1.3215,1.3215,1.3215,1.3215,1.3277,1.328,1.3268,1.327,1.3259,1.3261,1.325,1.3243,1.3243,1.3232,1.3234,1.3223,1.3242,1.3244,1.3216,1.3216,1.3216,1.3216,1.3216,1.3298,1.3298,1.3294,1.3291,1.329,1.3278,1.3279,1.3269,1.326,1.3262,1.326,1.326,1.3258,1.3262,1.3262,1.3262,1.3262,1.3262,1.3262,1.3321,1.3316,1.3318,1.3312,1.331,1.3306,1.3295,1.3293,1.3287,1.328,1.328,1.3269,1.3246,1.3241,1.3263,1.3263,1.3263,1.3263,1.3263,1.3348,1.334,1.3343,1.3342,1.3334,1.3334,1.3321,1.3317,1.3313,1.3314,1.3303,1.3288,1.3282,1.328,1.3275,1.3305,1.3305,1.3305,1.3305,1.3365,1.3362,1.3363,1.3361,1.3357,1.3346,1.335,1.3341,1.3331,1.3328,1.3322,1.3315,1.3313,1.3309,1.3306,1.3301,1.3337,1.3337,1.3337,1.3381,1.3377,1.3382,1.3373,1.3366,1.336,1.3363,1.3361,1.3347,1.3339,1.3325,1.3324,1.3313,1.3309,1.33,1.3296,1.3287,0,0]}]]